Regional Weather Roundup
Issued by NWS Wilmington, NC

Home | Current Version | Previous Version | Text Only | Print | Product List | Glossary On
Versions: 1 2 3 4 5 6 7 8 9 10 11 12 13 14 15 16 17 18 19 20 21 22 23 24 25 26 27 28 29 30 31 32 33 34 35 36 37 38 39 40 41 42 43 44 45 46 47 48 49 50
000
ASUS42 KILM 311410
RWRILM
RWRILM
REGIONAL HOURLY WEATHER ROUNDUP
NATIONAL WEATHER SERVICE WILMINGTON NC
900 AM EST SAT JAN 31 2015

NOTE: "FAIR" INDICATES FEW OR NO CLOUDS BELOW 12,000 FEET WITH NO
SIGNIFICANT WEATHER AND/OR OBSTRUCTIONS TO VISIBILITY.

...............WFO WILMINGTON COUNTY WARNING AREA...............

......COASTAL NC AND SC COUNTIES......

CITY           SKY/WX    TMP DP  RH WIND       PRES   REMARKS
WILMINGTON     SUNNY     33  10  38 N12G20    30.37R WCI  24
SOUTHPORT      SUNNY     32  12  43 N13G18    30.37R WCI  22
N MYRTLE BEACH SUNNY     35  12  38 N12       30.37R WCI  27
MYRTLE BEACH   SUNNY     34  14  44 N10       30.39R WCI  26

......INLAND NC AND SC COUNTIES.......

CITY           SKY/WX    TMP DP  RH WIND       PRES   REMARKS
LUMBERTON      SUNNY     34  13  41 N8        30.37R WCI  27
ELIZABETHTOWN  SUNNY     31  11  43 CALM      30.37S
WHITEVILLE     SUNNY     32  12  43 N3        30.37R
FLORENCE       SUNNY     33  13  43 N5        30.38R WCI  29
DARLINGTON     SUNNY     30  16  55 NW5       30.39R WCI  25

....................REST OF NORTH CAROLINA......................

.........EASTERN NC.........

CITY           SKY/WX    TMP DP  RH WIND       PRES   REMARKS
CAPE HATTERAS  SUNNY     31  15  52 NW15G28   30.30R WCI  20
JACKSONVILLE   SUNNY     30  10  43 NW8       30.37R WCI  23
MOREHEAD CITY  SUNNY     32  14  47 N14       30.34R WCI  22
KENANSVILLE    SUNNY     31  10  39 N9        30.37R WCI  23
NEW BERN       SUNNY     33  12  41 N13       30.36R WCI  24
ELIZABETH CITY SUNNY     27  10  49 NW15G21   30.34R WCI  15

.........CENTRAL NC.........

CITY           SKY/WX    TMP DP  RH WIND       PRES   REMARKS
RALEIGH DURHAM MOSUNNY   31   9  39 VRB5      30.36R WCI  26
ROCKY MOUNT    SUNNY     32   9  38 NW13      30.37R WCI  22
ROANOKE RAPIDS NOT AVBL
FAYETTEVILLE   SUNNY     34   9  35 NW8       30.37R WCI  27
HOFFMAN        SUNNY     31  13  46 NE3       30.38R

.........WESTERN NC.........

CITY           SKY/WX    TMP DP  RH WIND       PRES   REMARKS
CHARLOTTE      FAIR      32  17  54 SW3       30.36R
GREENSBORO     PTSUNNY   30  11  45 NW6       30.33R WCI  24
HICKORY        NOT AVBL
BOONE          NOT AVBL
ASHEVILLE      NOT AVBL

.....................REST OF SOUTH CAROLINA.....................

.........EASTERN SC.........

CITY           SKY/WX    TMP DP  RH WIND       PRES   REMARKS
CHARLESTON     MOSUNNY   39  14  36 NE7       30.38R WCI  34
BEAUFORT MCAS  SUNNY     38  20  48 NE9       30.39R WCI  31
HILTON HEAD    SUNNY    N/A N/A N/A N6        30.39R

.........CENTRAL SC.........

CITY           SKY/WX    TMP DP  RH WIND       PRES   REMARKS
COLUMBIA       SUNNY     31  24  75 CALM      30.38S
ORANGEBURG     SUNNY     35  17  47 NE5       30.37S WCI  31
SUMTER SHAW    SUNNY     35  11  38 N7        30.36F WCI  29

.........WESTERN SC.........

CITY           SKY/WX    TMP DP  RH WIND       PRES   REMARKS
GREENVILLE     NOT AVBL
ROCK HILL      SUNNY     32  18  56 S3        30.36S
ANDERSON       SUNNY     33  26  75 CALM      30.37R
CLEMSON        NOT AVBL
GREENWOOD      SUNNY     33  23  66 CALM      30.39R


...................COASTAL AND OFFSHORE REPORTS..................

................LOCAL PIERS AND NC RESERVE................


STATION/POSITION TIME  SKY/WX   TEMP    WIND        PRES    VSBY
                                AIR SEA DIR/SP/G
                 (UTC)          (F)     (DEG/KT/KT) (MB)    (MI)
JOHNY MRCER PIER 1400            32 52  350/ 12/ 14 1027.5R
NC RESRV MASNBRO 1300            29        CALM     1028.0S
OCEAN CREST PIER NOT AVBL
SPRINGMAID  PIER 1400            33 49  350/  9/ 13 1028.6S


................COASTAL AND OFFSHORE BUOYS................


STATION/POSITION TIME  SKY/WX   TEMP    WIND        PRES    VSBY
                                AIR SEA DIR/SP/G
                 (UTC)          (F)     (DEG/KT/KT) (MB)    (MI)
DIMNDSHOAL 41025 1400            34 61  340/ 27/ 33 1024.5R
WVE H/P(F/S)=  7/ 6 WND WVE H/P(F/S)=  7/ 6 SWL H/P/D(F/S/D)=  2/ 30/10

CAPE LOOKOUT     1300            31     340/ 18/ 21 1026.2R
ONSLOW BAY 41036 NOT AVBL
5 WRITEBCH 41038 1300            35 51  350/ 19/ 21 1027.4R
MASONBORO  41110 1400               51                N/A
WVE H/P(F/S)=  3/ 4 WND WVE H/P(F/S)=  3/ 4

WILM HARBR 41108 1400               53                N/A
WVE H/P(F/S)=  3/ 3 WND WVE H/P(F/S)=  3/ 3

27WRITEBCH 41037 NOT AVBL
FRYING PAN 41013 1400            39 61  350/ 19/ 23 1028.3R
WVE H/P(F/S)=  6/ 6 WND WVE H/P(F/S)=  5/ 6 SWL H/P/D(F/S/D)=  2/ 80/ 9

SUNST NRSH 41024 1300            33     360/ 10/ 12   N/A
CAPRS NRSH 41029 1300            40      50/ 17/ 21   N/A
EDISTO     41004 1400            45 67   20/ 17/ 23 1027.2R
WVE H/P(F/S)=  6/ 7 WND WVE H/P(F/S)=  7/ 7



..........OFFSHORE BUOYS BEYOND 100 NM OFFSHORE...........
.....IN A TRIANGLE---HAT TO BERMUDA TO BAHAMAS TO HAT.....


STATION/POSITION TIME  SKY/WX   TEMP    WIND        PRES    VSBY
                                AIR SEA DIR/SP/G
                 (UTC)          (F)     (DEG/KT/KT) (MB)    (MI)
150E HAT   41001 NOT AVBL
W BERMUDA  41048 1308            57 71  290/ 27/ 33 1015.8
WVE H/P(F/S)= 17/11 WND WVE H/P(F/S)= 11/ 6 SWL H/P/D(F/S/D)= 13/310/11

ATLANTIC S 41049 1343            72 74  250/ 16/ 19 1015.4R
WVE H/P(F/S)=  7/ 9 WND WVE H/P(F/S)=  3/ 5 SWL H/P/D(F/S/D)=  7/ 30/ 9

E BAHAMAS  41046 1302            74 78  330/ 12/ 14 1018.6R
WVE H/P(F/S)=  5/ 9 WND WVE H/P(F/S)=  2/ 5 SWL H/P/D(F/S/D)=  5/ 50/ 9

NE BAHAMAS 41047 1350            67 75  340/ 19/ 23 1019.9R
WVE H/P(F/S)=  7/ 7 WND WVE H/P(F/S)=  7/ 7 SWL H/P/D(F/S/D)=  3/360/11

120E CANVRL41010 1400            62 73   20/ 16/ 19 1024.7R
WVE H/P(F/S)=  6/ 8 WND WVE H/P(F/S)=  5/ 7 SWL H/P/D(F/S/D)=  3/340/ 8


END



USA.gov is the U.S. government's official web portal to all federal, state and local government web resources and services.